TimeCDT,TemperatureF,Dew PointF,Humidity,Sea Level PressureIn,VisibilityMPH,Wind Direction,Wind SpeedMPH,Gust SpeedMPH,PrecipitationIn,Events,Conditions,WindDirDegrees,DateUTC
12:52 AM,73.0,57.9,59,29.86,10.0,NW,11.5,-,N/A,,Partly Cloudy,320,2013-07-07 05:52:00
1:52 AM,70.0,57.9,65,29.86,10.0,WNW,8.1,-,N/A,,Scattered Clouds,300,2013-07-07 06:52:00
2:52 AM,69.1,57.0,65,29.88,10.0,NW,9.2,-,N/A,,Clear,310,2013-07-07 07:52:00
3:52 AM,64.9,59.0,81,29.88,10.0,West,5.8,-,N/A,,Scattered Clouds,280,2013-07-07 08:52:00
4:52 AM,63.0,57.9,84,29.89,10.0,WNW,6.9,-,N/A,,Clear,300,2013-07-07 09:52:00
5:52 AM,61.0,57.0,87,29.90,10.0,WNW,3.5,-,N/A,,Clear,290,2013-07-07 10:52:00
6:52 AM,63.0,57.0,81,29.91,10.0,WNW,3.5,-,N/A,,Clear,300,2013-07-07 11:52:00
7:52 AM,66.0,57.0,73,29.92,10.0,Calm,Calm,-,N/A,,Clear,0,2013-07-07 12:52:00
8:52 AM,70.0,55.9,61,29.94,10.0,WNW,3.5,-,N/A,,Clear,300,2013-07-07 13:52:00
9:52 AM,70.0,57.9,65,29.96,10.0,NW,4.6,-,N/A,,Clear,310,2013-07-07 14:52:00
10:52 AM,69.1,59.0,70,29.97,10.0,WSW,6.9,-,N/A,,Clear,250,2013-07-07 15:52:00
11:52 AM,70.0,59.0,68,29.99,10.0,SSW,6.9,-,N/A,,Clear,210,2013-07-07 16:52:00
12:52 PM,73.0,59.0,61,30.00,10.0,West,6.9,-,N/A,,Partly Cloudy,260,2013-07-07 17:52:00
1:52 PM,73.0,59.0,61,30.01,10.0,SSW,9.2,-,N/A,,Clear,200,2013-07-07 18:52:00
2:52 PM,75.0,60.1,60,29.98,10.0,SE,6.9,-,N/A,,Partly Cloudy,140,2013-07-07 19:52:00
3:52 PM,75.9,59.0,56,29.97,10.0,South,5.8,-,N/A,,Clear,170,2013-07-07 20:52:00
4:52 PM,80.1,57.9,47,29.96,10.0,WSW,5.8,-,N/A,,Clear,250,2013-07-07 21:52:00
5:52 PM,79.0,57.0,47,29.96,10.0,East,3.5,-,N/A,,Clear,100,2013-07-07 22:52:00
6:52 PM,79.0,57.9,48,29.94,10.0,SSW,5.8,-,N/A,,Clear,210,2013-07-07 23:52:00
7:52 PM,78.1,55.9,46,29.93,10.0,South,4.6,-,N/A,,Clear,180,2013-07-08 00:52:00
8:52 PM,75.9,57.0,52,29.94,10.0,SSW,5.8,-,N/A,,Clear,200,2013-07-08 01:52:00
9:52 PM,66.9,60.1,79,29.96,10.0,SSE,3.5,-,N/A,,Clear,150,2013-07-08 02:52:00
10:52 PM,66.9,59.0,76,29.98,8.0,Calm,Calm,-,N/A,,Clear,0,2013-07-08 03:52:00
11:52 PM,62.1,59.0,90,29.99,10.0,ESE,3.5,-,N/A,,Clear,120,2013-07-08 04:52:00